Weather in Borisovka

Russia / Lipetsk Oblast     52°50′24″N   39°59′00″E
temp.,
°C
wind,
m/s
gust,
m/s
humid.,
%
clouds,
%
prec.,
mm/h
press.,
hPa
HPBL,
m
17 april, sat
sat1700:00+11ssw22615 0.0 101914
03:00+10ne226598 0.0 101810
06:00+9ene3777100 0.0 1017126
09:00+12sse4671100 0.6 1017680
12:00+13ssw1262100 0.4 1018717
15:00+10ssw4885100 1.5 1018510
18:00+10wsw2479100 1.4 1018533
21:00+9ssw2486100 1.9 1018176
18 april, sun
sun1800:00+7wsw119091 0.0 101912
03:00+6se11925 0.0 101811
06:00+5s23946 0.0 101964
09:00+9ssw346964 0.0 1019538
12:00+12ssw3451100 0.1 10191568
15:00+12s3448100 0.2 10191690
18:00+11sw1255100 0.0 1020528
21:00+10ssw2250100 0.0 102116
19 april, mon
mon1900:00+10e2254100 0.0 102119
03:00+8e2261100 0.0 102016
06:00+7ne2271100 0.0 102033
09:00+10ene3468100 0.0 1020371
12:00+11ene4673100 2.1 1019675
15:00+13e776697 4.1 10181018
18:00+9e71284100 1.6 1019873
21:00+7e71282100 2.1 1020757
20 april, tue
tue2000:00+6e61288100 0.9 1019575
03:00+7ene71591100 3.2 1017728
06:00+6e81692100 2.4 1015758
09:00+7e91789100 3.8 1014801
12:00+7ese91888100 0.8 1013798
15:00+7ese112191100 7.7 10091006
18:00+8ese132587100 5.0 10061353
21:00+10se122386100 5.3 10041245
21 april, wed
wed2100:00+12se11198499 0.4 10021130
03:00+10s101978100 1.8 10031294
06:00+9sse121984100 0.1 10031382
09:00+8ssw101782100 0.7 10061514
12:00+8ssw91582100 0.1 10101401
15:00+9ssw81475100 0.3 10131621
18:00+9sw61274100 0.0 1016994
21:00+8ssw41074100 0.0 1018354